Flag for U.S.A. Weather past 2 weeks in El Monte, California, U.S.A.

Now
73 °F

Clear.


Feels Like: 76 °F
Forecast: 68 / 91 °F
Wind: 3 mph from Southwest

Location: Fullerton Municipal Airport

Current Time: Jul 29, 2014 at 12:27:31 AM

Latest Report: Jul 28, 2014 at 11:53 PM


Visibility: 10 mi

Pressure: 30.01 "Hg

Humidity: 66%

Dew point: 61 °F

Location of El MonteLocation

Historic Weather in El Monte — Graph

°F

El Monte temperature yesterday

Maximum temperature yesterday: 91 °F (at 3:53 PM)
Minimum temperature yesterday: 71 °F (at 2:53 AM)
Average temperature yesterday: 79 °F

Past Weeks' High & Low Weather Summary

 TemperatureHumidityPressure
High96 °F (Jul 24, 3:53 PM)85% (Jul 22, 6:53 AM)30.06 "Hg (Jul 22, 6:53 AM)
Low65 °F (Jul 18, 5:53 AM)16% (Jul 28, 5:53 PM)29.71 "Hg (Jul 24, 5:53 PM)
Average75 °F62%29.95 "Hg
* Reported Jul 13 10:53 PM — Jul 28 10:53 PM, El Monte, Weather by CustomWeather, © 2014

Note: Actual official high and low records may vary slightly from our data, if they occured in-between our weather recording intervals... More about our weather records

Advertising

El Monte weather history for previous 24 hours

 ConditionsComfort  
Time TempWeatherWind HumidityBarometerVisibility
10:53 PM
Jul 28
73 °FClear.3 mph69%30.01 "Hg10 mi
9:53 PM75 °FClear.3 mph62%30.01 "Hg10 mi
8:53 PM76 °FSunny.5 mph52%29.99 "Hg10 mi
7:53 PM80 °FSunny.7 mph29%29.98 "Hg10 mi
6:53 PM86 °FSunny.9 mph16%29.96 "Hg10 mi
5:53 PM89 °FSunny.8 mph16%29.94 "Hg10 mi
4:53 PM91 °FSunny.7 mph25%29.96 "Hg10 mi
3:53 PM91 °FSunny.3 mph26%29.97 "Hg10 mi
2:53 PM90 °FSunny.8 mph28%29.99 "Hg10 mi
1:53 PM87 °FSunny.10 mph37%30.01 "Hg10 mi
12:53 PM86 °FSunny.3 mph30%30.03 "Hg10 mi
11:53 AM83 °FSunny.No wind43%30.04 "Hg10 mi
10:53 AM81 °FSunny.3 mph47%30.06 "Hg10 mi
9:53 AM77 °FSunny.No wind62%30.06 "Hg10 mi
8:53 AM76 °FSunny.3 mph64%30.05 "Hg10 mi
7:53 AM74 °FSunny.No wind67%30.03 "Hg10 mi
6:53 AM72 °FClear.No wind78%30.02 "Hg10 mi
5:53 AM72 °FPassing clouds.No wind76%30.02 "Hg10 mi
4:53 AM72 °FPassing clouds.5 mph78%30.02 "Hg10 mi
3:53 AM71 °FClear.3 mph81%30.01 "Hg10 mi
2:53 AM71 °FClear.3 mph81%30.01 "Hg10 mi
1:53 AM72 °FPassing clouds.No wind78%30.00 "Hg10 mi
12:53 AM73 °FLight rain. Passing clouds.No wind74%30.00 "Hg10 mi
Weather by CustomWeather, © 2014

See weather overviewHow to use our weather pages